Terminal Aerodrome Forecast
Issued by NWS Springfield, MO

Home | Current Version | Previous Version | Text Only | Print | Product List | Glossary On
Versions: 1 2 3 4 5 6 7 8 9 10 11 12 13 14 15 16 17 18 19 20 21
000
FTUS43 KSGF 260500
TAFSGF
TAF
KSGF 260530Z 2606/2706 32012KT P6SM OVC050
     FM260700 34017G26KT P6SM OVC010
      TEMPO 2609/2613 3SM -SN BR
     FM261300 35017G27KT P6SM OVC015
     FM262000 35012G18KT P6SM BKN020
     FM270100 36010KT P6SM SCT025=

USA.gov is the U.S. government's official web portal to all federal, state and local government web resources and services.